www.pogodaiklimat.ru

Погода и климат >> Архив погоды >> Россия >> Тува >> Тоора-Хем


ПОГОДА в Тоора-Хем

  • Прогноз погоды в Тоора-Хем
  • Монитор погоды в Тоора-Хем
  • Климат города

АРХИВ ПОГОДЫ в Тоора-Хем

Время (UTC), дата Ветер
(напр.,м/с)
 
Видим.   Явления Облачность Т
(С)
Тd
(С)
f
(%)
Тe
(С)
Тes
(С)
Комфортность P
(гПа)
Po
(гПа)
Тmin
(С)
Tmax
(С)
R
(мм)
R24
(мм)
S
(см)
18 12.07 штиль 0 50 км 4/4 1000 м
[Sc]
+10.3 +7.8 84 +10 +10 1007.3 903.1
21 12.07 штиль 0 50 км 3/3 1000 м
[Sc]
+6.6 +4.8 88 +6 +6 1009.1 903.3
00 13.07 штиль 0 50 км ясно +10.4 +7.7 83 +10 +13 1008.4 904.1 +5.6
03 13.07 ЮВ 1 50 км 3/3 1000 м
[Cu med, cong Ci fib]
+19.6 +10.4 55 +22 +32 комфорт 1004.4 903.5
06 13.07 ЮЗ 3 50 км 4/4 1000 м
[Cu med, cong]
+25.0 +10.3 40 +26 +34 жарко 1000.8 902.1
09 13.07 С 3 50 км 4/3 1000 м
[Cu hum Ci fib]
+28.2 +10.6 33 +29 +34 жарко 997.7 900.3
12 13.07 В 1 50 км 3/3 1000 м
[Cu hum]
+28.1 +7.0 26 +27 +28 жарко 997.1 899.4 +29.5
15 13.07 С 1 50 км 3/3 1000 м
[Sc]
+17.2 +9.6 61 +18 +18 1001.4 900.1
18 13.07 штиль 0 50 км ясно +8.7 +36 +36 очень
душно
1004.6 900.3
21 13.07 штиль 0 50 км 4/3 1000 м
[Sc Ci fib]
+6.0 +4.4 89 +5 +5 1006.1 900.3
00 14.07 штиль 0 50 км 8/3 1000 м
[Sc Ci]
+12.6 +10.3 86 +12 +14 1003.7 900.6 +5.2
03 14.07 Ю 1 50 км 3/0
[Ci fib]
+20.9 +9.5 48 +24 +37 комфорт 1000.4 900.2
06 14.07 Ю 1 50 км 3/0
[Ci fib]
+28.0 +10.8 34 +29 +46 жарко 995.8 898.6
09 14.07 С 2 50 км 3/0
[Ci fib]
+30.6 +9.0 26 +30 +39 жарко 993.0 896.7
12 14.07 СЗ 2 50 км 8/0 2000 м
[Ac trans Ci fib]
+30.3 +9.3 27 +30 +31 жарко 992.8 896.5 +31.4
15 14.07 СЗ 2 50 км 9/3 1000 м
[Sc Ac trans Cs]
+23.1 +8.2 38 +24 +24 комфорт 996.3 897.5
18 14.07 ЮВ 1 50 км 6/3 1000 м
[Sc Ac trans]
+15.3 +11.0 76 +16 +16 999.9 898.1
21 14.07 С 1 50 км 6/3 1000 м
[Sc Ac trans]
+13.4 +11.5 88 +14 +14 1000.6 898.1
00 15.07 штиль 0 50 км 8/3 1000 м
[Sc Ac trans Ci fib]
+17.5 +13.4 77 +17 +19 999.6 898.9 +12.4
03 15.07 СЗ 1 50 км 9/3 1000 м
[Cu med, cong Ac trans Cs]
+23.0 +15.7 63 +27 +33 душно 997.5 898.6
06 15.07 Ю 3 50 км 9/5 1000 м
[Cu med, cong Ac trans Ci sp]
+25.8 +15.1 52 +29 +33 душно 995.7 897.9
09 15.07 З 2 50 км 9/6 1000 м
[Cu med, cong Ci sp]
+28.1 +15.0 45 +31 +34 душно 993.3 896.3
12 15.07 ЮВ 5-11
{12}
20 км гроза, ливневой дождь 10/10 1000 м
[Cb cap]
+22.1 +12.4 54 +25 +25 комфорт 998.8 899.4 +29.6 0.4
15 15.07 В 1
{14}
10 км гроза, ливневой дождь 10/10 1000 м
[Cb cap]
+14.2 +13.8 97 +14 +14 1003.5 901.0
18 15.07 штиль 0 50 км {гроза, ливн. осадки} 10/10 1000 м
[Cb cap]
+13.7 +13.3 97 +13 +13 1003.3 900.9
21 15.07 Ю 1 50 км 10/10 1000 м
[Cb cap]
+13.3 +12.8 97 +13 +13 1003.4 900.7
00 16.07 С 2 500 м туман ?/? +14.1 +13.7 97 +13 +13 1003.3 900.9 +13.0 30
03 16.07 СЗ 2 50 км в посл. час туман 9/9 1000 м
[Cb cap]
+16.4 +14.3 87 +16 +18 1002.1 900.5
06 16.07 ЮЗ 1 50 км {туман} 8/5 1000 м
[Cb cap Ci sp]
+21.8 +15.1 66 +25 +34 комфорт 999.3 899.9
09 16.07 З 2 50 км в посл. час гроза 9/9 1000 м
[Cb cap]
+25.4 +14.6 51 +28 +29 жарко 996.6 898.7
12 16.07 Ю 2 20 км гроза, ливневой дождь 10/10 1000 м
[Cb cap]
+15.6 +12.1 80 +16 +16 1001.3 899.4 +26.4 2
15 16.07 штиль 0 10 км слабый ливневой дождь {гроза} 10/10 1000 м
[Cb cap]
+15.8 +15.1 96 +16 +16 1001.9 900.3
18 16.07 СЗ 1 50 км {гроза, ливн. осадки} 10/10 1000 м
[Cb cap]
+15.2 +14.5 96 +16 +16 1002.3 900.3
21 16.07 С 1 50 км 10/10 1000 м
[Cb cap]
+14.9 +14.4 97 +15 +15 1002.1 900.1
00 17.07 С 1 20 км слабый ливневой дождь 10/10 1000 м
[Cb cap]
+15.1 +14.6 97 +16 +16 1001.8 899.9 +14.7 9
03 17.07 СЗ 1 50 км {ливн. осадки} 10/10 1000 м
[Cb cap]
+17.2 +15.3 89 +18 +18 1000.7 899.5 +14.6
06 17.07 СЗ 2 50 км в посл. час ливневой дождь 10/10 1000 м
[Cb cap]
+20.0 +15.5 75 +23 +23 комфорт 998.9 898.9
09 17.07 Ю 1 50 км гроза без осадков 10/10 1000 м
[Cb cap]
+22.3 +15.3 65 +26 +26 жарко 997.0 897.8
12 17.07 штиль 0 50 км {гроза, ливн. осадки} 10/10 1000 м
[Cb cap]
+17.3 +16.0 92 +17 +17 999.6 898.9 +23.9 9
15 17.07 С 1 50 км 10/10 1000 м
[Cb cap]
+16.6 +14.9 90 +17 +17 1000.5 899.3
18 17.07 С 1 50 км {ливн. осадки} 10/10 1000 м
[Cb cap]
+15.8 +14.6 93 +16 +16 1000.9 899.4
21 17.07 С 1 20 км слабый ливневой дождь 10/10 1000 м
[Cb cap]
+15.2 +13.8 91 +16 +16 1001.3 899.4
00 18.07 штиль 0 50 км в посл. час ливневой дождь 10/10 1000 м
[Cb cap]
+14.5 +13.2 92 +14 +14 1002.6 900.2 +14.5 2
03 18.07 СВ 1 20 км слабый ливневой дождь 10/10 1000 м
[Cb cap]
+15.0 +14.3 96 +15 +15 1003.4 901.3 +14.3
06 18.07 З 2 50 км {ливн. осадки} 9/9 1000 м
[Cb cap]
+19.1 +15.0 77 +21 +23 комфорт 1001.4 900.9
09 18.07 СЗ 2 50 км 9/9 1000 м
[Cb cap]
+19.4 +14.8 75 +22 +23 комфорт 1001.1 900.9
12 18.07 ЮЗ 1 50 км 9/8 1000 м
[Cb cap Ac trans]
+18.0 +13.4 74 +19 +19 1002.7 901.7 +22.1 0.3
15 18.07 СВ 1 50 км 10/10 1000 м
[Cb cap]
+14.8 +12.2 84 +15 +15 1005.3 903.0
18 18.07 ЮВ 1 50 км 10/10 1000 м
[Cb cap]
+14.2 +12.0 87 +15 +15 1005.7 903.0
21 18.07 штиль 0 50 км в посл. час ливневой дождь 10/10 1000 м
[Cb cap]
+13.0 +12.4 96 +12 +12 1005.5 902.5
00 19.07 В 1 50 км в посл. час ливневой дождь 10/10 1000 м
[Cb cap]
+13.3 +12.8 97 +13 +13 1005.3 902.3 +12.7 4
03 19.07 В 1 50 км {ливн. осадки} 10/10 1000 м
[Cb cap]
+15.1 +13.5 90 +16 +16 1003.8 901.7
06 19.07 З 2 50 км {ливн. осадки} 10/10 1000 м
[Cb cap]
+17.3 +13.4 78 +18 +18 1002.0 900.7
09 19.07 С 2 50 км 10/10 1000 м
[Cb cap]
+18.2 +13.5 74 +19 +19 1001.1 900.2
12 19.07 С 1 50 км 10/10 1000 м
[Cb cap]
+16.4 +12.6 78 +17 +17 1002.8 901.1 +19.1 0.0

 

Местоположение метеостанции Тоора-Хем (Тува, Россия): широта 52.47 долгота 96.10 высота над уровнем моря 920 м.

В архиве по умолчанию представлена погода в Тоора-Хем за последнюю неделю. Архивные данные за месяц целиком и за предыдущие месяцы, начиная с января 2011 года, Вы можете получить, выбрав интересующий диапазон дат из раскрывающегося списка и нажав кнопку "Ввод!".


*Определитесь, кто Вы:
робот инопланетянин человек

Внимание! Время в таблицах - всемирное. Для получения местного времени необходимо прибавить поправку, которая в Тоора-Хем равна 7 ч.

Смотрите также архив погоды в соседних городах и на ближайших метеорологических станциях:

Погода в Сарыг-Сепе (Тува, Россия) (114 км)
Погода в Кызыле (Тува, Россия) (138 км)
Погода в Туране (Тува, Россия) (153 км)
Погода в Сосновке (Тува, Россия) (183 км)
Погода в Казыре (Красноярский край, Россия) (186 км)
Погода в Алыгджере (Иркутская область, Россия) (192 км)
Погода в Оленьей Речке (Красноярский край, Россия) (197 км)
Погода в Верхней Гутаре (Иркутская область, Россия) (203 км)
Погода в Нижнеусинском (Красноярский край, Россия) (210 км)
Погода в Хову-Аксы (Тува, Россия) (217 км)

Пояснения к столбцам:

Ветер - указаны скорость ветра в м/с - средняя за 10 мин, порывы в срок и между сроками (в фигурных скобках) и направление, откуда дует ветер: С - северный, СВ - северо-восточный, В - восточный, ЮВ - юго-восточный, Ю - южный, ЮЗ - юго-западный, З - западный, СЗ - северо-западный.
Видимость - горизонтальная дальность видимости в метрах или километрах. При видимости от 1 до 10 км при отсутствии осадков обычно наблюдается дымка, при ухудшении видимости до 1 км и менее - туман. В сухую погоду видимость может ухудшаться дымом, пылью или мглою.
Явления - указаны атмосферные явления, наблюдавшиеся в срок или в последний час перед сроком; фигурными скобками обозначены явления, наблюдавшиеся между сроками (за 1-3 часа до срока); квадратными скобками обозначены град или гололедные отложения с указанием их диаметра в мм.
Облачность - указаны через наклонную черту общая и нижняя облачность в баллах и высота нижней границы облаков в метрах; квадратными скобками обозначены формы облаков: Ci - перистые, Cs - перисто-слоистые, Cc - перисто-кучевые, Ac - высококучевые, As - высокослоистые, Sc - слоисто-кучевые, Ns - слоисто-дождевые, Cu - кучевые, Cb - кучево-дождевые. Подробнее классификацию облаков см. в Атласе облаков (PDF).
T - Температура воздуха - температура, измеренная на высоте 2 м над землей.
Td - Температура точки росы - температура, при понижении до которой содержащийся в воздухе водяной пар достигнет насыщения.
f - Относительная влажность воздуха - влажноcть воздуха, измеренная на высоте 2 м над землей.
Te - Эффективная температура - температура, которую ощущает одетый по сезону человек в тени. Характеристика душности погоды. При расчете учитывается влияние влажности воздуха и скорости ветра на теплоощущения человека.
Tes - Эффективная температура на солнце - температура, которую ощущает человек, с поправкой на солнечный нагрев. Характеристика знойности погоды. Зависит от высоты солнца над горизонтом, облачности и скорости ветра. Ночью, в пасмурную погоду, а также при ветре 12 м/с и более поправка равна нулю.
P - Атмосферное давление - приведенное к уровню моря атмосферное давление.
Po - Атмосферное давление - измеренное на уровне метеостанции атмосферное давление.
Tmin - Минимальная температура - минимум температуры воздуха на высоте 2 м над землей.
Tmax - Максимальная температура - максимум температуры воздуха на высоте 2 м над землей.
R - Количество осадков - Количество выпавших осадков за период времени, мм. При наведении курсора мыши на число - период времени, за который выпало указанное количество осадков.
R24 - Количество осадков - Количество выпавших осадков за 24 часа, мм.
S - Снежный покров - Высота снежного покрова, см. При наведении курсора мыши на число - состояние снежного покрова и степень покрытия местности в баллах.